When you browse on this site, cookies collect data to enhance your experience and personalize the content and advertising you see.
Visit our Privacy Policy to learn more. By continuing to use the site, you agree to this use of cookies and data.

Hourly Weather Townsville

Today, 5 July, Sunday

Time Temperature Precipitation Wind Pressure Humidity
00:00 +17°C° 0 mm 3 mps 758 mmHg 77%
01:00 +17°C° 0 mm 3 mps 758 mmHg 77%
02:00 +17°C° 0 mm 3 mps 758 mmHg 77%
03:00 +16°C° 0 mm 3 mps 758 mmHg 77%
04:00 +16°C° 0 mm 3 mps 758 mmHg 80%
05:00 +14°C° 0 mm 3 mps 758 mmHg 76%
06:00 +14°C° 0 mm 3 mps 758 mmHg 73%
07:00 +13°C° 0 mm 3 mps 758 mmHg 69%
08:00 +16°C° 0 mm 3 mps 759 mmHg 60%
09:00 +18°C° 0 mm 3 mps 759 mmHg 51%
10:00 +20°C° 0 mm 3 mps 759 mmHg 38%
11:00 +21°C° 0 mm 3 mps 759 mmHg 36%
12:00 +22°C° 0 mm 3 mps 758 mmHg 34%
13:00 +24°C° 0 mm 3 mps 758 mmHg 31%
14:00 +23°C° 0 mm 4 mps 757 mmHg 33%
15:00 +23°C° 0 mm 4 mps 757 mmHg 35%
16:00 +23°C° 0 mm 4 mps 757 mmHg 37%
17:00 +21°C° 0 mm 4 mps 757 mmHg 47%
18:00 +19°C° 0 mm 3 mps 758 mmHg 57%
19:00 +17°C° 0 mm 3 mps 758 mmHg 66%
20:00 +17°C° 0 mm 3 mps 758 mmHg 69%
21:00 +16°C° 0 mm 3 mps 758 mmHg 72%
22:00 +16°C° 0 mm 3 mps 758 mmHg 74%
23:00 +16°C° 0 mm 3 mps 758 mmHg 74%

Tomorrow, 6 July, Monday

Time Temperature Precipitation Wind Pressure Humidity
00:00 +14°C° 0 mm 3 mps 758 mmHg 74%
01:00 +14°C° 0 mm 3 mps 758 mmHg 74%
02:00 +14°C° 0 mm 3 mps 758 mmHg 72%
03:00 +13°C° 0 mm 3 mps 758 mmHg 71%
04:00 +13°C° 0 mm 3 mps 758 mmHg 70%
05:00 +12°C° 0 mm 3 mps 758 mmHg 67%
06:00 +12°C° 0 mm 3 mps 759 mmHg 65%
07:00 +11°C° 0 mm 3 mps 759 mmHg 62%
08:00 +14°C° 0 mm 3 mps 759 mmHg 54%
09:00 +17°C° 0 mm 3 mps 759 mmHg 46%
10:00 +20°C° 0 mm 3 mps 760 mmHg 38%
11:00 +21°C° 0 mm 3 mps 759 mmHg 38%
12:00 +22°C° 0 mm 4 mps 758 mmHg 38%
13:00 +25°C° 0 mm 4 mps 758 mmHg 39%
14:00 +23°C° 0 mm 4 mps 757 mmHg 44%
15:00 +23°C° 0 mm 4 mps 757 mmHg 50%
16:00 +23°C° 0 mm 5 mps 757 mmHg 55%
17:00 +21°C° 0 mm 5 mps 757 mmHg 65%
18:00 +19°C° 0 mm 5 mps 758 mmHg 75%
19:00 +18°C° 0 mm 4 mps 758 mmHg 85%
20:00 +17°C° 0 mm 4 mps 759 mmHg 86%
21:00 +17°C° 0 mm 4 mps 759 mmHg 88%
22:00 +17°C° 0 mm 4 mps 759 mmHg 89%
23:00 +15°C° 0 mm 4 mps 759 mmHg 90%

Day after tomorrow, 7 July, Tuesday

Time Temperature Precipitation Wind Pressure Humidity
00:00 +15°C° 0 mm 4 mps 759 mmHg 90%
01:00 +14°C° 0 mm 3 mps 758 mmHg 91%
02:00 +14°C° 0 mm 3 mps 758 mmHg 91%
03:00 +14°C° 0 mm 3 mps 758 mmHg 92%
04:00 +14°C° 0 mm 3 mps 758 mmHg 92%
05:00 +14°C° 0 mm 3 mps 758 mmHg 92%
06:00 +14°C° 0 mm 4 mps 758 mmHg 93%
07:00 +14°C° 0 mm 4 mps 758 mmHg 93%
08:00 +17°C° 0 mm 4 mps 759 mmHg 85%
09:00 +19°C° 0 mm 4 mps 759 mmHg 77%
10:00 +21°C° 0 mm 4 mps 759 mmHg 68%
11:00 +22°C° 0 mm 5 mps 759 mmHg 65%
12:00 +23°C° 0 mm 5 mps 758 mmHg 63%
13:00 +24°C° 0 mm 6 mps 757 mmHg 60%
14:00 +24°C° 0 mm 6 mps 757 mmHg 60%
15:00 +24°C° 0 mm 6 mps 757 mmHg 61%
16:00 +23°C° 0 mm 6 mps 757 mmHg 62%
17:00 +22°C° 0 mm 6 mps 757 mmHg 66%
18:00 +21°C° 0 mm 5 mps 757 mmHg 71%
19:00 +20°C° 0 mm 5 mps 758 mmHg 76%
20:00 +19°C° 0 mm 5 mps 758 mmHg 79%
21:00 +17°C° 0 mm 5 mps 758 mmHg 83%
22:00 +17°C° 0 mm 5 mps 758 mmHg 86%
23:00 +17°C° 0 mm 4 mps 758 mmHg 88%

8 July, Wednesday

Time Temperature Precipitation Wind Pressure Humidity
00:00 +17°C° 0 mm 4 mps 758 mmHg 90%
01:00 +15°C° 0 mm 4 mps 758 mmHg 91%
02:00 +15°C° 0 mm 4 mps 757 mmHg 92%
03:00 +15°C° 0 mm 4 mps 757 mmHg 92%
04:00 +15°C° 0 mm 4 mps 757 mmHg 93%
05:00 +15°C° 0 mm 4 mps 757 mmHg 93%
06:00 +15°C° 0 mm 4 mps 757 mmHg 93%
07:00 +15°C° 0 mm 4 mps 758 mmHg 93%
08:00 +17°C° 0 mm 4 mps 758 mmHg 87%
09:00 +19°C° 0 mm 4 mps 758 mmHg 81%
10:00 +21°C° 0 mm 5 mps 758 mmHg 75%
11:00 +21°C° 0.2 mm 5 mps 757 mmHg 74%
12:00 +22°C° 0.2 mm 5 mps 757 mmHg 73%
13:00 +22°C° 0.2 mm 5 mps 756 mmHg 72%
14:00 +23°C° 0.1 mm 6 mps 756 mmHg 69%
15:00 +23°C° 0.1 mm 6 mps 756 mmHg 65%
16:00 +24°C° 0.1 mm 7 mps 756 mmHg 62%
17:00 +22°C° 0 mm 6 mps 756 mmHg 67%
18:00 +21°C° 0 mm 6 mps 756 mmHg 72%
19:00 +20°C° 0 mm 6 mps 757 mmHg 77%
20:00 +19°C° 0 mm 5 mps 757 mmHg 81%
21:00 +17°C° 0 mm 5 mps 757 mmHg 84%
22:00 +16°C° 0 mm 5 mps 758 mmHg 87%
23:00 +17°C° 0 mm 4 mps 758 mmHg 88%

9 July, Thursday

Time Temperature Precipitation Wind Pressure Humidity
00:00 +17°C° 0 mm 4 mps 757 mmHg 90%
01:00 +17°C° 0 mm 4 mps 757 mmHg 91%
02:00 +17°C° 0 mm 4 mps 757 mmHg 89%
03:00 +18°C° 0 mm 4 mps 757 mmHg 87%
04:00 +18°C° 0 mm 4 mps 757 mmHg 86%
05:00 +18°C° 0.1 mm 4 mps 757 mmHg 86%
06:00 +18°C° 0.1 mm 4 mps 757 mmHg 87%
07:00 +18°C° 0.1 mm 4 mps 758 mmHg 88%
08:00 +20°C° 0 mm 5 mps 758 mmHg 80%
09:00 +22°C° 0 mm 6 mps 758 mmHg 71%
10:00 +23°C° 0 mm 7 mps 758 mmHg 63%
11:00 +24°C° 0 mm 7 mps 758 mmHg 60%
12:00 +26°C° 0 mm 7 mps 757 mmHg 57%
13:00 +26°C° 0 mm 8 mps 756 mmHg 54%
14:00 +26°C° 0 mm 7 mps 756 mmHg 56%
15:00 +26°C° 0 mm 7 mps 756 mmHg 58%
16:00 +24°C° 0 mm 7 mps 756 mmHg 60%
17:00 +23°C° 0 mm 6 mps 756 mmHg 67%
18:00 +21°C° 0 mm 6 mps 757 mmHg 74%
19:00 +20°C° 0 mm 5 mps 757 mmHg 81%
20:00 +20°C° 0.1 mm 5 mps 757 mmHg 81%
21:00 +20°C° 0.1 mm 5 mps 758 mmHg 82%
22:00 +19°C° 0.1 mm 5 mps 758 mmHg 82%
23:00 +19°C° 0.1 mm 4 mps 758 mmHg 82%

10 July, Friday

Time Temperature Precipitation Wind Pressure Humidity
00:00 +19°C° 0.1 mm 4 mps 758 mmHg 82%
01:00 +19°C° 0.1 mm 4 mps 757 mmHg 82%
02:00 +19°C° 0.1 mm 4 mps 757 mmHg 83%
03:00 +18°C° 0.1 mm 3 mps 757 mmHg 84%
04:00 +18°C° 0.1 mm 3 mps 757 mmHg 84%
05:00 +18°C° 0 mm 3 mps 757 mmHg 87%
06:00 +18°C° 0 mm 3 mps 757 mmHg 89%
07:00 +17°C° 0 mm 3 mps 757 mmHg 91%
08:00 +19°C° 0 mm 3 mps 758 mmHg 85%
09:00 +21°C° 0 mm 3 mps 758 mmHg 79%
10:00 +22°C° 0 mm 4 mps 758 mmHg 72%
11:00 +23°C° 0.1 mm 4 mps 757 mmHg 69%
12:00 +25°C° 0.1 mm 4 mps 757 mmHg 65%
13:00 +26°C° 0.1 mm 4 mps 756 mmHg 61%
14:00 +26°C° 0 mm 4 mps 756 mmHg 63%
15:00 +26°C° 0 mm 4 mps 755 mmHg 65%
16:00 +25°C° 0 mm 4 mps 755 mmHg 67%
17:00 +23°C° 0.1 mm 4 mps 756 mmHg 74%
18:00 +22°C° 0.1 mm 3 mps 756 mmHg 81%
19:00 +20°C° 0.1 mm 3 mps 757 mmHg 88%
20:00 +20°C° 0.2 mm 3 mps 757 mmHg 89%
21:00 +20°C° 0.2 mm 3 mps 757 mmHg 90%
22:00 +20°C° 0.2 mm 3 mps 757 mmHg 91%
23:00 +20°C° 0.3 mm 3 mps 757 mmHg 92%
Show more